Theta_e
319 321 323 321 321 320 320 316 322 311 315 320 317 319 319 319 320 318 319 319 322 324 323 325 325 326 324 314 314 318 315 316 320 321 315 308 306 310 316 320 320 315 311 314
320 321 322 321 321 320 319 317 310 307 309 319 316 314 317 317 320 319 320 320 319 320 322 324 324 323 315 314 315 317 314 318 320 316 306 304 305 304 308 308 307 310 313 312
319 320 321 322 321 320 320 309 309 304 307 306 318 316 316 319 314 317 317 317 316 317 319 320 321 322 317 310 310 311 312 315 319 319 316 307 309 307 308 307 307 306 307 306
319 319 319 321 321 320 320 312 311 309 309 307 312 318 318 318 319 313 314 315 317 318 318 318 319 319 317 312 310 309 311 312 310 310 307 307 308 309 308 307 307 307 305 305
318 318 318 320 321 320 320 308 308 305 308 312 313 312 314 321 318 313 314 317 315 316 318 317 315 316 315 315 308 309 307 310 305 296 302 302 304 304 304 304 304 303 301 301
319 320 320 319 321 319 318 305 304 312 308 307 313 315 318 316 316 313 312 314 314 313 314 310 308 309 308 309 311 308 307 303 302 303 302 302 301 299 300 299 299 299 299 297
319 320 319 318 320 320 315 307 308 312 310 310 312 312 314 315 315 316 311 310 310 306 303 303 304 305 306 306 307 307 307 305 306 303 302 297 299 298 297 298 297 297 299 298
316 319 317 316 317 320 317 311 312 313 321 311 310 311 311 311 308 306 308 307 305 303 300 301 302 299 299 301 303 305 306 303 302 300 301 299 296 298 298 298 297 296 294 295
314 319 318 318 318 318 316 312 312 310 309 309 310 310 309 306 304 303 303 302 302 299 299 301 304 305 298 297 296 297 301 298 294 295 294 294 298 297 297 297 296 295 293 295
314 318 317 317 317 315 313 307 309 305 303 302 305 306 306 303 302 302 301 302 301 294 296 298 299 299 296 295 295 296 297 295 291 286 287 292 296 297 297 291 291 291 294 294
314 318 319 318 315 312 310 301 304 303 300 297 299 302 304 302 300 302 298 298 296 293 292 297 296 296 295 296 296 296 296 294 293 292 285 290 296 297 293 292 292 293 292 293
317 317 316 316 309 309 309 299 298 300 296 294 293 293 295 298 300 296 294 297 295 294 293 289 293 296 296 295 292 293 295 293 291 293 293 293 295 292 293 292 291 291 294 295
317 312 309 306 307 308 308 297 296 294 293 294 293 293 292 296 297 297 295 292 293 292 291 291 292 295 292 292 293 293 293 292 293 293 293 293 293 292 291 291 291 292 294 296
307 305 306 308 307 307 306 299 297 296 295 295 293 293 292 293 295 295 295 292 291 289 289 290 290 292 291 291 291 291 291 292 294 289 291 292 292 292 292 295 296 295 296 296
305 307 306 306 304 302 299 296 295 294 295 294 293 292 292 292 294 293 293 291 289 289 289 287 290 290 291 290 291 292 290 292 289 290 291 291 292 292 296 296 296 297 296 295
306 305 304 302 298 296 297 295 294 294 295 295 294 291 292 292 292 291 290 289 287 287 288 288 289 290 290 289 292 292 290 290 290 291 292 291 292 292 296 296 295 294 293 293
298 297 297 296 296 295 294 294 295 294 293 292 290 291 290 292 291 289 289 289 288 288 286 288 289 290 287 286 292 292 292 292 291 292 292 292 295 295 295 295 293 293 294 294
295 295 295 295 296 296 294 295 295 295 293 292 294 292 292 292 291 291 287 287 287 287 288 289 291 290 289 291 291 291 292 291 291 291 291 291 293 295 295 294 292 292 292 293
294 294 295 295 295 293 294 293 296 297 295 291 292 293 291 291 290 288 288 285 289 288 287 291 289 290 291 293 292 292 292 292 292 295 295 295 296 295 293 293 292 292 290 290
293 293 292 289 293 293 292 293 291 289 288 290 293 291 293 292 288 286 285 286 286 288 291 289 289 292 292 293 293 293 293 292 293 294 295 295 294 293 293 292 290 290 290 290
293 289 290 293 292 292 288 288 292 290 293 292 292 292 292 290 291 290 288 290 290 288 288 291 293 292 289 295 294 293 293 293 294 294 294 294 293 292 292 292 291 291 291 290
292 293 293 292 288 287 289 289 292 295 295 293 294 293 290 289 289 289 289 293 290 295 290 295 289 292 296 294 294 293 293 294 294 294 293 293 294 293 292 291 291 291 290 289
293 289 288 287 285 287 288 290 294 292 292 292 290 290 292 287 287 290 292 295 290 293 296 293 293 291 294 293 293 293 295 293 292 293 292 291 291 290 290 290 290 287 287 287
287 287 286 285 282 290 290 291 291 288 288 291 291 291 291 290 293 290 292 293 293 291 294 295 285 288 292 294 293 294 294 293 290 289 289 289 288 288 287 287 287 286 285 286
289 288 285 287 291 291 287 286 290 291 290 292 292 291 290 289 289 292 294 293 294 294 292 288 288 292 294 295 294 293 292 290 289 288 287 285 285 284 284 285 285 286 286 285
290 291 293 294 294 292 284 286 289 291 291 290 290 290 291 293 295 296 293 295 293 290 289 289 288 292 292 292 291 290 289 289 288 286 285 285 285 283 284 284 285 284 285 284
292 286 286 285 287 286 283 285 289 290 292 288 291 293 295 291 291 295 292 288 284 285 286 287 290 291 291 289 289 287 287 286 286 286 285 284 283 284 284 284 283 283 283 282
Wind_Speed
37 37 37 38 39 39 37 9 5 10 22 5 3 4 6 4 4 2 4 2 5 7 6 5 5 7 9 4 5 3 4 2 7 13 7 3 3 2 2 5 3 3 2 6
35 31 37 41 44 45 23 6 3 2 4 6 6 1 3 5 6 6 7 7 7 6 6 5 11 8 3 3 6 6 5 3 6 6 4 4 2 3 4 2 1 6 7 3
38 38 35 40 45 48 24 4 3 1 1 1 3 5 4 5 2 3 4 3 3 2 4 6 3 3 1 2 3 7 4 4 8 14 10 3 3 2 2 4 3 4 6 14
46 41 34 43 48 54 28 3 5 5 5 4 4 6 8 6 6 3 5 4 12 7 5 3 7 7 4 3 9 3 3 5 6 8 8 6 8 7 7 8 7 7 11 16
44 39 45 47 51 57 20 6 5 1 3 8 15 8 8 11 3 8 5 8 12 10 8 10 5 3 3 3 4 5 2 2 1 4 8 8 7 6 11 13 14 15 13 14
45 43 48 45 53 55 6 4 4 5 7 4 9 8 12 12 9 5 3 11 4 8 10 3 3 4 4 4 5 6 5 2 1 3 4 5 6 5 5 2 4 6 9 9
41 43 46 49 54 67 17 7 6 4 3 6 7 9 13 11 12 7 3 5 5 4 10 8 5 3 2 4 5 4 4 4 2 2 4 2 2 2 2 3 7 7 7 6
37 41 45 54 53 64 27 16 8 4 10 8 4 8 5 9 6 3 2 2 5 8 4 3 2 0 1 3 5 8 4 3 1 2 2 7 2 3 3 3 6 4 5 8
37 38 44 46 47 56 28 23 14 4 7 7 6 6 6 4 4 3 2 5 9 3 2 2 4 3 1 2 2 4 4 3 3 2 1 4 2 4 3 3 4 5 4 9
37 37 42 45 49 57 33 11 14 7 5 2 1 3 4 6 5 4 4 5 2 1 2 2 3 3 3 3 4 4 3 1 4 2 3 7 3 4 2 5 6 2 3 9
36 34 36 41 44 51 27 10 13 8 3 3 6 3 5 5 4 4 6 4 1 2 3 2 2 2 2 1 1 3 4 3 3 3 1 6 6 3 5 6 5 5 5 5
37 34 37 36 44 43 30 9 21 24 7 4 6 12 4 2 7 5 1 1 3 4 4 1 2 2 2 3 2 1 3 6 4 7 5 4 6 6 7 4 6 7 4 3
29 31 39 42 43 36 24 21 19 17 4 5 4 3 10 7 8 12 4 1 5 3 2 3 2 2 3 3 4 3 3 4 3 1 3 9 7 5 5 4 6 7 5 6
44 47 47 41 37 28 37 16 15 17 5 4 2 3 5 8 8 6 5 12 7 6 3 3 2 2 3 3 2 4 5 6 5 5 8 6 9 6 7 5 5 6 5 5
49 45 41 34 35 38 39 27 16 10 5 4 4 3 10 13 19 21 19 17 6 3 3 3 2 2 2 1 1 4 5 6 4 6 8 5 5 4 4 4 4 6 6 7
46 42 38 40 44 44 28 4 10 17 16 5 3 1 4 10 19 20 12 7 4 3 3 2 1 2 3 2 3 5 6 4 7 5 4 6 6 7 6 4 3 5 6 6
47 47 45 38 32 16 7 4 11 14 11 4 4 3 2 4 5 4 4 6 2 3 2 1 2 2 4 2 3 3 5 6 6 6 1 6 4 6 5 5 5 6 6 7
51 46 41 37 35 24 16 16 12 9 13 4 4 2 2 2 2 2 2 2 3 3 2 2 2 0 2 4 7 3 5 7 7 9 9 9 5 3 3 2 2 5 6 4
48 44 38 29 13 5 3 12 17 20 8 4 3 4 3 2 2 2 3 2 2 1 1 1 2 2 4 4 3 7 6 5 7 4 4 4 2 3 4 4 6 6 6 5
40 24 11 3 3 6 3 4 4 5 4 4 2 1 3 3 1 2 2 2 1 0 3 1 2 3 3 3 7 9 11 8 4 3 3 3 3 5 7 8 6 6 7 4
7 3 2 9 6 4 4 3 4 2 4 2 1 2 4 1 3 3 2 2 2 1 4 2 2 3 2 4 2 2 4 5 6 5 4 7 7 6 6 7 7 7 6 5
12 19 11 5 4 3 6 2 1 3 3 1 4 3 3 1 2 3 2 2 1 2 2 1 3 3 2 3 3 2 2 3 4 4 5 6 6 8 6 6 5 5 6 9
13 7 4 3 4 8 5 3 2 3 2 3 2 2 3 2 2 2 2 1 3 2 2 3 3 3 4 4 3 5 5 8 6 4 7 9 9 10 8 7 6 7 9 12
4 4 6 3 3 1 3 3 4 3 3 5 4 3 2 2 3 2 3 2 2 2 3 4 3 4 4 6 5 4 6 5 5 4 5 7 7 7 8 7 9 10 10 11
4 4 3 2 2 3 1 1 4 2 3 4 3 3 2 2 3 0 2 1 3 4 4 2 3 3 4 6 3 5 6 4 4 4 4 6 10 10 12 15 13 10 11 12
3 4 5 3 6 2 3 2 3 1 3 3 3 3 3 1 2 2 5 2 4 3 2 3 2 3 4 3 4 5 6 5 4 7 9 9 11 11 11 14 8 11 11 9
4 3 3 3 3 4 2 2 2 1 2 2 3 3 2 2 2 2 3 4 3 3 3 1 3 4 5 5 4 5 7 6 6 8 10 9 10 12 10 6 11 12 8 8
Wind_Direction
222 213 210 202 194 182 177 149 196 166 162 179 207 190 174 167 172 205 220 287 239 209 197 217 230 224 206 122 148 190 173 257 270 272 261 66 71 347 135 224 226 217 256 266
212 208 209 203 192 180 162 156 113 175 215 200 210 220 178 184 158 185 185 228 211 215 201 254 228 225 90 147 171 163 162 225 302 295 27 39 76 48 113 79 136 237 271 297
213 210 211 201 191 181 165 127 142 301 224 358 197 152 200 190 215 219 154 174 126 159 220 234 258 209 185 106 100 108 111 218 226 256 286 86 272 208 83 186 229 294 249 292
208 214 220 205 192 184 175 152 199 182 190 214 198 187 166 164 191 215 174 216 215 181 216 214 230 238 164 166 149 124 183 247 216 264 279 264 246 228 218 226 232 245 286 275
207 210 222 203 191 186 191 150 145 76 150 153 198 187 197 216 157 150 222 224 208 203 214 210 202 158 156 183 123 150 162 272 271 263 248 248 262 238 235 233 247 257 274 287
209 211 217 207 193 182 174 132 90 129 160 149 174 207 204 192 143 218 199 214 165 206 230 108 89 92 105 153 176 175 178 182 140 272 29 315 286 247 236 259 276 273 277 288
216 212 210 209 203 191 180 158 120 117 196 188 201 174 200 189 197 218 165 165 147 100 99 87 75 80 179 188 201 182 176 164 185 314 347 279 196 29 288 290 279 306 318 300
219 211 213 204 203 200 198 168 166 149 216 183 169 149 167 106 89 87 105 53 113 142 84 81 116 130 266 235 220 212 198 108 226 239 251 312 149 10 59 39 298 248 231 268
218 214 214 208 208 204 201 189 177 117 135 201 137 160 151 134 118 97 96 72 127 102 103 121 174 200 161 149 110 50 125 103 133 132 172 268 204 190 184 184 284 242 205 271
219 215 209 205 204 194 189 156 173 114 103 54 111 144 150 124 120 114 132 150 137 359 119 127 168 188 166 190 175 165 139 109 177 167 223 282 227 171 148 77 248 275 223 253
214 210 204 205 199 191 174 131 147 115 98 68 25 51 133 113 130 141 151 105 285 71 84 147 182 153 181 165 203 165 166 168 216 137 104 281 159 110 144 226 282 270 273 264
212 212 203 198 177 169 162 97 106 102 77 88 64 58 55 127 166 134 81 114 150 164 99 61 120 144 128 151 252 124 218 188 189 183 217 213 195 205 245 244 251 268 260 281
191 187 172 157 161 155 142 126 112 81 85 54 46 14 43 125 138 138 121 267 157 134 133 147 145 149 133 168 225 203 245 179 213 34 244 246 251 264 252 275 243 257 221 275
158 148 149 149 150 146 138 119 111 97 108 104 52 32 43 45 137 133 126 127 91 99 77 89 134 155 165 217 224 191 201 158 208 258 278 271 258 229 240 259 294 286 225 274
144 144 141 137 136 126 113 97 94 111 114 137 132 76 47 73 90 92 106 99 94 85 74 84 187 144 128 209 360 238 182 200 170 227 222 190 245 243 220 245 283 319 268 269
138 138 130 129 122 117 106 71 66 114 118 104 94 281 33 68 79 69 57 62 72 78 117 173 206 270 130 167 233 238 218 221 212 238 221 212 254 246 218 221 245 259 252 230
123 122 125 133 135 128 75 135 139 124 116 94 98 89 356 75 57 35 38 37 69 99 108 122 173 248 136 165 239 239 230 239 252 244 257 284 223 245 211 214 242 274 266 246
128 127 120 106 97 86 68 74 98 98 96 79 98 97 85 34 61 54 13 49 23 10 130 64 200 127 188 248 244 286 281 287 281 259 213 238 244 218 247 197 265 273 271 269
116 110 106 99 59 57 115 90 76 67 80 100 85 136 168 69 59 95 35 77 28 337 59 240 119 220 227 244 329 316 286 244 272 250 195 188 224 281 240 246 265 258 260 253
118 111 56 51 41 110 67 37 28 21 355 44 94 126 100 102 43 24 75 43 172 168 255 106 165 250 276 11 341 297 283 252 220 123 46 6 312 256 249 246 239 234 247 244
68 78 95 116 87 61 35 45 62 346 52 28 133 114 121 322 117 156 170 179 177 78 259 131 269 265 238 62 320 7 76 99 108 134 208 225 237 256 266 273 256 255 237 230
119 117 102 82 38 53 83 13 344 59 138 99 105 120 128 98 97 99 239 138 56 254 155 219 268 251 155 219 205 179 343 336 316 307 306 323 324 320 306 307 316 319 330 326
97 66 75 52 324 51 97 155 35 84 183 165 120 67 107 42 49 65 97 116 225 125 237 236 241 204 184 201 215 241 293 308 304 349 14 354 338 336 336 324 336 348 325 309
66 70 46 78 350 114 172 140 149 201 125 123 97 71 124 124 71 123 104 237 83 339 239 236 255 233 232 247 257 268 295 322 328 338 327 312 320 319 332 326 316 314 299 312
72 64 82 69 126 49 67 93 86 43 110 98 86 62 83 38 79 187 129 17 250 225 237 236 250 241 228 256 248 266 276 262 271 292 308 318 318 312 316 322 323 321 318 322
78 70 86 83 94 42 31 39 79 45 103 92 64 98 71 139 133 129 205 215 231 251 224 238 252 253 275 295 328 320 302 303 343 359 341 338 326 316 304 310 321 340 330 314
52 17 30 101 101 152 183 121 121 108 80 123 109 99 168 121 70 236 187 210 219 233 293 306 325 350 350 337 335 23 16 12 353 350 349 359 0 2 357 357 8 357 17 42